CW7625 Weather Reports


Display with metric or nautical units.
time (UTC)temp
F
wind
direction
speed
MPH
gust
MPH
rain 1hr
in
rain 24hr
in
rain mn
in
humidity
%
barometer
mb
20260509201107 81 74 0.0 3.0 0.00 0.02 0.02 80 1007.6
20260509200107 80 74 0.0 0.0 0.00 0.02 0.02 79 1007.8
20260509195107 80 74 0.0 0.0 0.00 0.02 0.02 79 1007.9
20260509194107 80 74 0.0 1.0 0.00 0.02 0.02 77 1008.0
20260509193107 80 74 0.0 4.0 0.00 0.02 0.02 77 1008.0
20260509192107 81 82 4.0 5.0 0.00 0.02 0.02 74 1008.1
20260509185107 81 205 1.0 4.0 0.00 0.02 0.02 72 1008.2
20260509184107 82 48 0.0 2.0 0.00 0.02 0.02 73 1008.2
20260509182107 82 88 4.0 8.0 0.00 0.02 0.02 71 1008.3
20260509181107 82 39 2.0 4.0 0.00 0.02 0.02 75 1008.3
20260509180107 81 211 1.0 3.0 0.00 0.02 0.02 75 1008.4
20260509175107 81 111 2.0 6.0 0.00 0.02 0.02 74 1008.6
20260509174107 80 45 2.0 4.0 0.00 0.02 0.02 78 1008.7
20260509172107 78 238 1.0 4.0 0.00 0.02 0.02 80 1008.7
20260509171107 78 238 0.0 3.0 0.00 0.02 0.02 81 1008.8
20260509164107 77 223 0.0 4.0 0.00 0.02 0.02 81 1008.9
20260509163107 77 292 3.0 5.0 0.00 0.02 0.02 84 1009.0
20260509162107 77 292 0.0 5.0 0.00 0.02 0.02 83 1009.0
20260509161107 77 319 1.0 4.0 0.00 0.02 0.02 84 1008.9
20260509160107 76 101 0.0 3.0 0.00 0.02 0.02 84 1009.0
20260509155107 76 252 1.0 3.0 0.00 0.02 0.02 85 1008.9
20260509154107 74 302 0.0 3.0 0.00 0.02 0.02 87 1008.8
20260509153107 73 302 2.0 3.0 0.00 0.02 0.02 86 1008.9
20260509152107 73 42 2.0 3.0 0.00 0.02 0.02 88 1008.9
20260509151107 72 30 2.0 4.0 0.00 0.02 0.02 89 1009.0
20260509150107 70 40 0.0 0.0 0.00 0.02 0.02 90 1009.0
20260509145107 69 346 0.0 0.0 0.00 0.02 0.02 90 1009.2
20260509144107 69 346 0.0 0.0 0.00 0.02 0.02 90 1009.3
20260509143107 69 346 0.0 0.0 0.00 0.02 0.02 90 1009.3
20260509142107 69 346 0.0 0.0 0.01 0.02 0.02 90 1009.3
20260509141107 68 346 0.0 1.0 0.01 0.02 0.02 90 1009.3
20260509140107 68 346 0.0 1.0 0.01 0.02 0.02 91 1009.3
20260509135107 67 346 0.0 0.0 0.01 0.02 0.02 91 1009.3
20260509134107 67 346 0.0 1.0 0.01 0.02 0.02 91 1009.4
20260509133107 67 346 0.0 3.0 0.01 0.02 0.02 90 1009.4
20260509132107 66 333 0.0 1.0 0.00 0.01 0.01 90 1009.5
20260509131107 66 333 0.0 1.0 0.00 0.01 0.01 90 1009.4
20260509130107 66 333 1.0 2.0 0.00 0.01 0.01 91 1009.4
20260509125107 65 331 0.0 0.0 0.00 0.01 0.01 91 1009.4
20260509124107 65 331 0.0 0.0 0.00 0.01 0.01 91 1009.4
20260509123107 65 331 0.0 0.0 0.00 0.01 0.01 91 1009.2
20260509122107 65 331 0.0 0.0 0.00 0.01 0.01 91 1009.1
20260509121107 65 331 0.0 0.0 0.00 0.01 0.01 91 1009.0
20260509120107 65 331 0.0 0.0 0.00 0.01 0.01 91 1008.8
20260509115107 64 331 0.0 0.0 0.00 0.01 0.01 91 1008.6
20260509114108 64 331 0.0 0.0 0.00 0.01 0.01 91 1008.4
20260509113108 64 331 0.0 0.0 0.00 0.01 0.01 91 1008.1
20260509112107 64 331 0.0 0.0 0.00 0.01 0.01 91 1007.8
20260509103107 64 331 0.0 0.0 0.00 0.01 0.01 91 1007.7
20260509102107 64 331 0.0 0.0 0.00 0.01 0.01 91 1007.9
20260509101107 64 331 0.0 0.0 0.00 0.01 0.01 91 1007.9
20260509100108 64 331 0.0 0.0 0.01 0.01 0.01 91 1007.9
20260509094108 64 331 0.0 0.0 0.01 0.01 0.01 90 1007.8
20260509093107 64 331 0.0 0.0 0.01 0.01 0.01 91 1007.7
20260509092107 64 331 0.0 0.0 0.01 0.01 0.01 91 1007.9
20260509090107 64 331 0.0 0.0 0.00 0.00 0.00 91 1008.0
20260509085107 64 331 0.0 0.0 0.00 0.00 0.00 91 1007.9
20260509084107 64 331 0.0 0.0 0.00 0.00 0.00 91 1007.9
20260509083107 64 331 0.0 0.0 0.00 0.00 0.00 91 1007.9
20260509081107 63 331 0.0 0.0 0.00 0.00 0.00 90 1008.3
20260509080108 63 331 0.0 0.0 0.00 0.00 0.00 90 1008.2
20260509075107 63 331 0.0 0.0 0.00 0.00 0.00 90 1008.2
20260509074108 63 331 0.0 0.0 0.00 0.00 0.00 90 1008.0
20260509073108 63 331 0.0 0.0 0.00 0.00 0.00 90 1008.4
20260509072107 63 331 0.0 0.0 0.00 0.00 0.00 89 1008.4
20260509071108 63 331 0.0 0.0 0.00 0.00 0.00 89 1008.6
20260509065107 63 331 0.0 0.0 0.00 0.00 0.00 89 1009.0
20260509063107 64 331 0.0 0.0 0.00 0.00 0.00 88 1008.9
20260509062107 64 331 0.0 0.0 0.00 0.00 0.00 88 1009.0
20260509055107 63 329 2.0 2.0 0.00 0.00 0.00 89 1009.4
20260509053107 63 327 0.0 0.0 0.00 0.00 0.00 88 1009.4
20260509052108 64 327 0.0 0.0 0.00 0.00 0.00 87 1009.3
20260509051107 64 327 0.0 0.0 0.00 0.00 0.00 87 1009.1
20260509050108 64 327 0.0 0.0 0.00 0.00 0.00 87 1008.5
20260509045107 64 327 0.0 0.0 0.00 0.00 0.00 87 1008.3
20260509044108 65 327 0.0 0.0 0.00 0.00 0.00 87 1008.7
20260509043107 64 327 0.0 2.0 0.00 0.00 0.00 87 1008.1
20260509042108 64 70 0.0 0.0 0.00 0.00 0.00 88 1008.6
20260509040107 65 70 0.0 0.0 0.00 0.00 0.00 87 1009.2
20260509035107 66 70 0.0 0.0 0.00 0.00 0.00 86 1009.2
20260509034108 66 70 0.0 1.0 0.00 0.00 0.00 86 1009.1
20260509033108 66 70 0.0 5.0 0.00 0.00 0.00 86 1009.4
20260509031107 65 220 0.0 2.0 0.00 0.00 0.00 87 1009.2
20260509025107 67 220 0.0 2.0 0.00 0.00 0.00 85 1007.4
20260509024107 66 220 1.0 3.0 0.00 0.00 0.00 86 1007.1
20260509023108 67 220 2.0 4.0 0.00 0.00 0.00 87 1006.8
20260509022108 67 220 1.0 3.0 0.00 0.00 0.00 88 1007.0
20260509021107 67 108 0.0 5.0 0.00 0.00 0.00 88 1007.4
20260509020107 67 111 0.0 0.0 0.00 0.00 0.00 88 1007.2
20260509015108 68 111 0.0 0.0 0.00 0.00 0.00 87 1007.0
20260509014107 69 111 0.0 1.0 0.00 0.00 0.00 86 1007.5
20260509013108 69 111 0.0 0.0 0.00 0.00 0.00 85 1007.3
20260509012108 70 111 0.0 1.0 0.00 0.00 0.00 84 1007.2
20260509011107 71 111 0.0 0.0 0.00 0.00 0.00 82 1007.2
20260509010107 72 111 0.0 0.0 0.00 0.00 0.00 81 1007.0
20260509005107 73 111 0.0 0.0 0.00 0.00 0.00 80 1006.8
20260509004107 73 111 0.0 0.0 0.00 0.00 0.00 79 1006.8
20260509003107 74 321 0.0 1.0 0.00 0.00 0.00 78 1006.6
20260509002108 74 316 0.0 3.0 0.00 0.00 0.00 75 1006.2
20260509001108 74 316 0.0 3.0 0.00 0.00 0.00 74 1006.0
20260509000107 74 315 2.0 4.0 0.00 0.00 0.00 73 1006.1
20260508235107 75 105 3.0 5.0 0.00 0.00 0.00 73 1006.4
20260508234108 75 80 3.0 5.0 0.00 0.00 0.00 72 1006.4
20260508233108 74 201 0.0 3.0 0.00 0.00 0.00 72 1006.9
20260508231107 75 201 1.0 2.0 0.00 0.00 0.00 72 1007.5
20260508230108 75 201 1.0 3.0 0.00 0.00 0.00 70 1007.6
20260508225107 75 202 2.0 5.0 0.00 0.00 0.00 70 1007.8
20260508224107 76 82 0.0 6.0 0.00 0.00 0.00 69 1007.8
20260508223107 76 227 0.0 4.0 0.00 0.00 0.00 68 1007.7
20260508222107 76 323 0.0 4.0 0.00 0.00 0.00 66 1007.8
20260508221107 76 9 1.0 4.0 0.00 0.00 0.00 63 1007.6
20260508220107 76 304 0.0 4.0 0.00 0.00 0.00 64 1007.6
20260508215107 76 247 1.0 7.0 0.00 0.00 0.00 63 1007.6
20260508212108 77 20 2.0 8.0 0.00 0.00 0.00 59 1007.6
20260508211107 77 53 3.0 7.0 0.00 0.00 0.00 58 1007.8
20260508210107 77 74 0.0 9.0 0.00 0.00 0.00 57 1007.9
20260508204107 76 212 2.0 10.0 0.00 0.00 0.00 57 1008.1
20260508203107 77 246 5.0 6.0 0.00 0.00 0.00 54 1008.2
20260508202108 77 53 1.0 6.0 0.00 0.00 0.00 58 1008.3